Regional Weather Roundup
Issued by NWS

Home | Current Version | Previous Version | Graphics & Text | Print | Product List | Glossary On
Versions: 1 2 3 4 5 6 7 8 9 10 11 12 13 14 15 16 17 18 19 20 21 22 23 24 25 26 27 28 29 30 31 32 33 34 35 36 37 38 39 40 41 42 43 44 45 46 47 48 49 50
000
ASUS45 KCYS 281010
RWRWY

WYOMING REGIONAL WEATHER ROUNDUP
NATIONAL WEATHER SERVICE CHEYENNE WY
300 AM MST WED JAN 28 2015

NOTE:  "FAIR" INDICATES FEW OR NO CLOUDS BELOW 12,000 FEET
WITH NO SIGNIFICANT WEATHER AND/OR OBSTRUCTIONS TO VISIBILITY.

WYZ001-281100-
YELLOWSTONE NATIONAL PARK

CITY           SKY/WX    TMP DP  RH WIND       PRES   REMARKS
LK YELLOWSTONE   N/A     30  29  96 CALM      30.12S
W YELLOWSTONE  NOT AVBL

$$
WYZ002>013-054>058-071-098>099-281100-
NORTHERN WYOMING

CITY           SKY/WX    TMP DP  RH WIND       PRES   REMARKS
JACKSON        MOCLDY    32  32 100 CALM      30.11S
CODY           CLOUDY    48  30  49 W10G17    29.97S
GREYBULL       CLOUDY    31  29  92 SW3       29.98R
WORLAND        CLOUDY    28  25  88 E5        29.97R WCI  23
SHERIDAN       CLOUDY    52  32  46 W18       29.89R
BUFFALO        FAIR      43  26  51 CALM      29.90S
GILLETTE       FAIR      43  28  55 SW6       29.88S
HULETT           N/A    N/A N/A N/A MISG        N/A
NEWCASTLE      FAIR      36  28  75 N12       29.90S WCI  27

$$
WYZ014>020-022>026-101>103-281100-
CENTRAL WYOMING

CITY           SKY/WX    TMP DP  RH WIND       PRES   REMARKS
BIG PINEY      CLOUDY    24  20  84 CALM      30.15S
PINEDALE       PTSUNNY   19  18  93 CALM      30.17R
DUBOIS         FAIR      32  28  86 NW9       30.06S WCI  24
LANDER         FAIR      35  24  64 N12G18    30.00S WCI  27
RIVERTON       FAIR      35  25  66 W6        30.03R WCI  30
CASPER         FAIR      37  28  70 S13       30.02R WCI  29
DOUGLAS        FAIR      49  28  44 W17G32    29.96F

$$
WYZ021-027>030-104>119-281100-
SOUTHERN WYOMING

CITY           SKY/WX    TMP DP  RH WIND       PRES   REMARKS
EVANSTON       MOCLDY    33  31  92 SW10      30.19F WCI  25
KEMMERER       FLURRIES  32  32 100 SW6       30.18R WCI  26
FORT BRIDGER   FAIR      37  32  82 SW14      30.20S WCI  28
ROCK SPRINGS   CLOUDY    33  28  81 W8        30.18R WCI  26
DIXON          FAIR      38  34  86 SW13G20   30.21S WCI  30
RAWLINS        FAIR      37  31  78 SW18      30.14S WCI  27
SARATOGA       FAIR      36  32  87 SW12G18   30.16S WCI  27
LARAMIE        MOCLDY    37  31  78 SW15      30.08F WCI  28
CHEYENNE       FAIR      46  29  51 W16G26    30.02R
TORRINGTON     FAIR      49  32  52 W16G24    29.95F
PINE BLUFFS    FAIR      45  30  57 NW15      29.99S

$$


USA.gov is the U.S. government's official web portal to all federal, state and local government web resources and services.